Flag for Norway Weather past 2 weeks in Lierbyen, Norway

Now
43 °F

Sprinkles. Passing clouds.


Feels Like: 29 °F
Forecast: 30 / 38 °F
Wind: 53 mph from Southwest

Location: Oslo / Fornebu

Current Time: Feb 27, 2015 at 7:26:59 AM

Latest Report: Feb 27, 2015 at 6:50 AM


Visibility: 5 mi

Pressure: 29.33 "Hg

Humidity: 76%

Dew point: 36 °F

Location of LierbyenLocation

Historic Weather in Lierbyen — Graph

°F

Lierbyen temperature yesterday

Maximum temperature yesterday: 46 °F (at 8:20 AM)
Minimum temperature yesterday: 37 °F (at 4:20 PM)
Average temperature yesterday: 43 °F

Past Weeks' High & Low Weather Summary

 TemperatureHumidityPressure
High48 °F (Feb 18, 8:50 AM)100% (Feb 12, 6:50 AM)30.04 "Hg (Feb 12, 6:50 AM)
Low34 °F (Feb 22, 6:50 AM)53% (Feb 17, 5:50 AM)28.50 "Hg (Feb 23, 6:20 AM)
Average42 °F80%29.46 "Hg
* Reported Feb 12 6:20 AM — Feb 27 6:20 AM, Lierbyen, Weather by CustomWeather, © 2015

Note: Actual official high and low records may vary slightly from our data, if they occured in-between our weather recording intervals... More about our weather records

Advertising

Lierbyen weather history for previous 24 hours

 ConditionsComfort  
Time TempWeatherWind HumidityBarometerVisibility
6:20 AM
Fri, Feb 27
43 °FPassing clouds.53 mph76%29.33 "HgN/A
5:50 AM43 °FPassing clouds.52 mph76%29.36 "HgN/A
5:20 AM43 °FPassing clouds.52 mph71%29.36 "HgN/A
4:50 AM43 °FPassing clouds.51 mph66%29.36 "HgN/A
4:20 AM43 °FPassing clouds.53 mph66%29.36 "HgN/A
3:50 AM43 °FPassing clouds.48 mph66%29.39 "HgN/A
3:20 AM43 °FPassing clouds.48 mph61%29.36 "HgN/A
2:50 AM41 °FSprinkles. Passing clouds.47 mph66%29.39 "HgN/A
2:20 AM41 °FPassing clouds.46 mph66%29.39 "HgN/A
1:50 AM41 °FPassing clouds.45 mph61%29.39 "HgN/A
1:20 AM41 °FPassing clouds.47 mph66%29.39 "HgN/A
12:50 AM41 °FPassing clouds.43 mph61%29.39 "HgN/A
12:20 AM41 °FPassing clouds.40 mph66%29.39 "HgN/A
11:50 PM
Thu, Feb 26
41 °FPassing clouds.39 mph61%29.39 "HgN/A
11:20 PM43 °FPassing clouds.41 mph61%29.39 "HgN/A
10:50 PM43 °FQuite cool.38 mph66%29.39 "HgN/A
9:50 PM41 °FPassing clouds.30 mph76%29.39 "HgN/A
9:20 PM41 °FPassing clouds.35 mph76%29.39 "HgN/A
8:50 PM41 °FPassing clouds.35 mph81%29.39 "HgN/A
8:20 PM41 °FPassing clouds.33 mph76%29.36 "HgN/A
7:50 PM41 °FSprinkles. Passing clouds.35 mph81%29.36 "HgN/A
7:20 PM43 °FPassing clouds.37 mph71%29.33 "HgN/A
6:50 PM43 °FPassing clouds.33 mph71%29.33 "HgN/A
6:20 PM41 °FPartly cloudy.36 mph76%29.33 "HgN/A
5:50 PM41 °FPassing clouds.38 mph81%29.33 "HgN/A
5:20 PM41 °FSprinkles. Scattered clouds.30 mph76%29.33 "HgN/A
4:50 PM41 °FBroken clouds.25 mph81%29.33 "HgN/A
4:20 PM37 °FLight rain. Fog.28 mph93%29.33 "Hg2 mi
3:50 PM43 °FPartly sunny.20 mph81%29.33 "HgN/A
3:20 PM43 °FPassing clouds.23 mph81%29.30 "HgN/A
2:50 PM43 °FScattered clouds.23 mph81%29.30 "HgN/A
2:20 PM43 °FBroken clouds.20 mph81%29.30 "HgN/A
1:50 PM43 °FPartly sunny.26 mph81%29.30 "HgN/A
1:20 PM45 °FPartly sunny.22 mph76%29.30 "HgN/A
12:50 PM45 °FPartly sunny.23 mph81%29.27 "HgN/A
12:20 PM43 °FLight rain. Overcast.25 mph81%29.27 "HgN/A
11:50 AM43 °FLight rain. Partly sunny.28 mph87%29.27 "HgN/A
11:20 AM45 °FLight rain. Fog.31 mph87%29.27 "Hg1 mi
10:50 AM45 °FSprinkles. Fog.28 mph87%29.27 "Hg2 mi
10:20 AM45 °FLight rain. Partly sunny.29 mph93%29.24 "HgN/A
9:50 AM45 °FLight rain. Partly sunny.31 mph93%29.24 "Hg5 mi
9:20 AM45 °FLight rain. Partly sunny.36 mph100%29.24 "Hg3 mi
8:50 AM46 °FLight rain. Fog.51 mph93%29.18 "Hg2 mi
8:20 AM46 °FLight rain. Fog.51 mph93%29.21 "Hg1 mi
7:50 AM45 °FLight rain. Fog.50 mph100%29.21 "Hg2 mi
7:20 AM45 °FLight rain. Fog.55 mph100%29.18 "Hg3 mi
Weather by CustomWeather, © 2015

See weather overviewHow to use our weather pages